Year,Month,Day,Hour,Minute,Value (Times are PST for temperature in C)
2020,07,28,00,00,18.90
2020,07,28,00,01,18.80
2020,07,28,00,02,18.80
2020,07,28,00,03,18.80
2020,07,28,00,04,18.70
2020,07,28,00,05,18.70
2020,07,28,00,06,18.70
2020,07,28,00,07,18.70
2020,07,28,00,08,18.70
2020,07,28,00,09,18.60
2020,07,28,00,10,18.60
2020,07,28,00,11,18.60
2020,07,28,00,12,18.50
2020,07,28,00,13,18.50
2020,07,28,00,14,18.40
2020,07,28,00,15,18.40
2020,07,28,00,16,18.40
2020,07,28,00,17,18.30
2020,07,28,00,18,18.30
2020,07,28,00,19,18.30
2020,07,28,00,20,18.30
2020,07,28,00,21,18.30
2020,07,28,00,22,18.30
2020,07,28,00,23,18.30
2020,07,28,00,24,18.30
2020,07,28,00,25,18.30
2020,07,28,00,26,18.20
2020,07,28,00,27,18.30
2020,07,28,00,28,18.30
2020,07,28,00,29,18.30
2020,07,28,00,30,18.30
2020,07,28,00,31,18.30
2020,07,28,00,32,18.30
2020,07,28,00,33,18.30
2020,07,28,00,34,18.30
2020,07,28,00,35,18.20
2020,07,28,00,36,18.20
2020,07,28,00,37,18.20
2020,07,28,00,38,18.20
2020,07,28,00,39,18.20
2020,07,28,00,40,18.20
2020,07,28,00,41,18.20
2020,07,28,00,42,18.20
2020,07,28,00,43,18.20
2020,07,28,00,44,18.20
2020,07,28,00,45,18.10
2020,07,28,00,46,18.10
2020,07,28,00,47,18.10
2020,07,28,00,48,18.10
2020,07,28,00,49,18.10
2020,07,28,00,50,18.10
2020,07,28,00,51,18.00
2020,07,28,00,52,18.00
2020,07,28,00,53,17.90
2020,07,28,00,54,17.80
2020,07,28,00,55,17.70
2020,07,28,00,56,17.70
2020,07,28,00,57,17.60
2020,07,28,00,58,17.50
2020,07,28,00,59,17.40
2020,07,28,01,00,17.30
2020,07,28,01,01,17.20
2020,07,28,01,02,17.20
2020,07,28,01,03,17.10
2020,07,28,01,04,17.10
2020,07,28,01,05,17.00
2020,07,28,01,06,17.00
2020,07,28,01,07,16.90
2020,07,28,01,08,17.00
2020,07,28,01,09,17.00
2020,07,28,01,10,17.00
2020,07,28,01,11,17.10
2020,07,28,01,12,17.10
2020,07,28,01,13,17.10
2020,07,28,01,14,17.10
2020,07,28,01,15,17.00
2020,07,28,01,16,17.10
2020,07,28,01,17,17.10
2020,07,28,01,18,17.10
2020,07,28,01,19,17.10
2020,07,28,01,20,17.10
2020,07,28,01,21,17.20
2020,07,28,01,22,17.20
2020,07,28,01,23,17.20
2020,07,28,01,24,17.20
2020,07,28,01,25,17.20
2020,07,28,01,26,17.20
2020,07,28,01,27,17.20
2020,07,28,01,28,17.20
2020,07,28,01,29,17.20
2020,07,28,01,30,17.20
2020,07,28,01,31,17.10
2020,07,28,01,32,17.10
2020,07,28,01,33,17.10
2020,07,28,01,34,17.10
2020,07,28,01,35,17.10
2020,07,28,01,36,17.10
2020,07,28,01,37,17.10
2020,07,28,01,38,17.10
2020,07,28,01,39,17.10
2020,07,28,01,40,17.10
2020,07,28,01,41,17.00
2020,07,28,01,42,16.90
2020,07,28,01,43,16.90
2020,07,28,01,44,16.80
2020,07,28,01,45,16.80
2020,07,28,01,46,16.70
2020,07,28,01,47,16.70
2020,07,28,01,48,16.70
2020,07,28,01,49,16.70
2020,07,28,01,50,16.70
2020,07,28,01,51,16.70
2020,07,28,01,52,16.70
2020,07,28,01,53,16.70
2020,07,28,01,54,16.70
2020,07,28,01,55,16.70
2020,07,28,01,56,16.70
2020,07,28,01,57,16.70
2020,07,28,01,58,16.60
2020,07,28,01,59,16.60
2020,07,28,02,00,16.60
2020,07,28,02,01,16.60
2020,07,28,02,02,16.60
2020,07,28,02,03,16.60
2020,07,28,02,04,16.60
2020,07,28,02,05,16.60
2020,07,28,02,06,16.60
2020,07,28,02,07,16.60
2020,07,28,02,08,16.60
2020,07,28,02,09,16.60
2020,07,28,02,10,16.70
2020,07,28,02,11,16.70
2020,07,28,02,12,16.70
2020,07,28,02,13,16.60
2020,07,28,02,14,16.60
2020,07,28,02,15,16.60
2020,07,28,02,16,16.60
2020,07,28,02,17,16.50
2020,07,28,02,18,16.50
2020,07,28,02,19,16.50
2020,07,28,02,20,16.50
2020,07,28,02,21,16.60
2020,07,28,02,22,16.80
2020,07,28,02,23,16.90
2020,07,28,02,24,17.10
2020,07,28,02,25,17.20
2020,07,28,02,26,17.30
2020,07,28,02,27,17.40
2020,07,28,02,28,17.50
2020,07,28,02,29,17.60
2020,07,28,02,30,17.70
2020,07,28,02,31,17.70
2020,07,28,02,32,17.70
2020,07,28,02,33,17.70
2020,07,28,02,34,17.70
2020,07,28,02,35,17.70
2020,07,28,02,36,17.70
2020,07,28,02,37,17.70
2020,07,28,02,38,17.70
2020,07,28,02,39,17.70
2020,07,28,02,40,17.70
2020,07,28,02,41,17.70
2020,07,28,02,42,17.70
2020,07,28,02,43,17.60
2020,07,28,02,44,17.60
2020,07,28,02,45,17.50
2020,07,28,02,46,17.50
2020,07,28,02,47,17.40
2020,07,28,02,48,17.40
2020,07,28,02,49,17.30
2020,07,28,02,50,17.20
2020,07,28,02,51,17.10
2020,07,28,02,52,17.10
2020,07,28,02,53,17.10
2020,07,28,02,54,17.00
2020,07,28,02,55,16.90
2020,07,28,02,56,16.80
2020,07,28,02,57,16.80
2020,07,28,02,58,16.70
2020,07,28,02,59,16.70
2020,07,28,03,00,16.70
2020,07,28,03,01,16.60
2020,07,28,03,02,16.50
2020,07,28,03,03,16.40
2020,07,28,03,04,16.40
2020,07,28,03,05,16.30
2020,07,28,03,06,16.30
2020,07,28,03,07,16.20
2020,07,28,03,08,16.20
2020,07,28,03,09,16.10
2020,07,28,03,10,16.10
2020,07,28,03,11,16.10
2020,07,28,03,12,16.10
2020,07,28,03,13,16.10
2020,07,28,03,14,16.10
2020,07,28,03,15,16.10
2020,07,28,03,16,16.20
2020,07,28,03,17,16.10
2020,07,28,03,18,16.10
2020,07,28,03,19,16.10
2020,07,28,03,20,16.00
2020,07,28,03,21,15.90
2020,07,28,03,22,15.90
2020,07,28,03,23,15.80
2020,07,28,03,24,15.80
2020,07,28,03,25,15.80
2020,07,28,03,26,15.80
2020,07,28,03,27,15.80
2020,07,28,03,28,15.80
2020,07,28,03,29,15.80
2020,07,28,03,30,15.80
2020,07,28,03,31,15.90
2020,07,28,03,32,16.00
2020,07,28,03,33,16.00
2020,07,28,03,34,16.10
2020,07,28,03,35,16.00
2020,07,28,03,36,16.00
2020,07,28,03,37,16.00
2020,07,28,03,38,16.10
2020,07,28,03,39,16.10
2020,07,28,03,40,16.10
2020,07,28,03,41,16.10
2020,07,28,03,42,16.10
2020,07,28,03,43,16.20
2020,07,28,03,44,16.20
2020,07,28,03,45,16.20
2020,07,28,03,46,16.10
2020,07,28,03,47,16.10
2020,07,28,03,48,16.10
2020,07,28,03,49,16.10
2020,07,28,03,50,16.00
2020,07,28,03,51,15.90
2020,07,28,03,52,15.90
2020,07,28,03,53,15.90
2020,07,28,03,54,15.80
2020,07,28,03,55,15.80
2020,07,28,03,56,15.80
2020,07,28,03,57,15.80
2020,07,28,03,58,15.80
2020,07,28,03,59,15.90
2020,07,28,04,00,16.00
2020,07,28,04,01,16.00
2020,07,28,04,02,16.10
2020,07,28,04,03,16.10
2020,07,28,04,04,16.00
2020,07,28,04,05,16.00
2020,07,28,04,06,15.90
2020,07,28,04,07,15.90
2020,07,28,04,08,15.80
2020,07,28,04,09,15.80
2020,07,28,04,10,15.80
2020,07,28,04,11,15.70
2020,07,28,04,12,15.70
2020,07,28,04,13,15.60
2020,07,28,04,14,15.60
2020,07,28,04,15,15.60
2020,07,28,04,16,15.50
2020,07,28,04,17,15.50
2020,07,28,04,18,15.40
2020,07,28,04,19,15.40
2020,07,28,04,20,15.40
2020,07,28,04,21,15.30
2020,07,28,04,22,15.30
2020,07,28,04,23,15.30
2020,07,28,04,24,15.20
2020,07,28,04,25,15.20
2020,07,28,04,26,15.20
2020,07,28,04,27,15.10
2020,07,28,04,28,15.20
2020,07,28,04,29,15.20
2020,07,28,04,30,15.20
2020,07,28,04,31,15.20
2020,07,28,04,32,15.10
2020,07,28,04,33,15.10
2020,07,28,04,34,15.00
2020,07,28,04,35,15.00
2020,07,28,04,36,15.10
2020,07,28,04,37,15.10
2020,07,28,04,38,15.20
2020,07,28,04,39,15.20
2020,07,28,04,40,15.20
2020,07,28,04,41,15.30
2020,07,28,04,42,15.30
2020,07,28,04,43,15.30
2020,07,28,04,44,15.30
2020,07,28,04,45,15.30
2020,07,28,04,46,15.30
2020,07,28,04,47,15.30
2020,07,28,04,48,15.40
2020,07,28,04,49,15.40
2020,07,28,04,50,15.40
2020,07,28,04,51,15.40
2020,07,28,04,52,15.40
2020,07,28,04,53,15.40
2020,07,28,04,54,15.50
2020,07,28,04,55,15.50
2020,07,28,04,56,15.60
2020,07,28,04,57,15.60
2020,07,28,04,58,15.60
2020,07,28,04,59,15.50
2020,07,28,05,00,15.50
2020,07,28,05,01,15.40
2020,07,28,05,02,15.40
2020,07,28,05,03,15.40
2020,07,28,05,04,15.30
2020,07,28,05,05,15.30
2020,07,28,05,06,15.30
2020,07,28,05,07,15.30
2020,07,28,05,08,15.20
2020,07,28,05,09,15.20
2020,07,28,05,10,15.20
2020,07,28,05,11,15.20
2020,07,28,05,12,15.20
2020,07,28,05,13,15.20
2020,07,28,05,14,15.20
2020,07,28,05,15,15.20
2020,07,28,05,16,15.10
2020,07,28,05,17,15.10
2020,07,28,05,18,15.10
2020,07,28,05,19,15.10
2020,07,28,05,20,15.10
2020,07,28,05,21,15.00
2020,07,28,05,22,15.00
2020,07,28,05,23,15.10
2020,07,28,05,24,15.10
2020,07,28,05,25,15.00
2020,07,28,05,26,15.00
2020,07,28,05,27,15.00
2020,07,28,05,28,15.00
2020,07,28,05,29,15.00
2020,07,28,05,30,14.90
2020,07,28,05,31,14.90
2020,07,28,05,32,14.90
2020,07,28,05,33,14.90
2020,07,28,05,34,14.80
2020,07,28,05,35,14.80
2020,07,28,05,36,14.80
2020,07,28,05,37,14.80
2020,07,28,05,38,14.80
2020,07,28,05,39,14.80
2020,07,28,05,40,14.80
2020,07,28,05,41,14.90
2020,07,28,05,42,14.90
2020,07,28,05,43,15.00
2020,07,28,05,44,15.00
2020,07,28,05,45,15.10
2020,07,28,05,46,15.10
2020,07,28,05,47,15.10
2020,07,28,05,48,15.10
2020,07,28,05,49,15.10
2020,07,28,05,50,15.10
2020,07,28,05,51,15.10
2020,07,28,05,52,15.00
2020,07,28,05,53,15.00
2020,07,28,05,54,15.00
2020,07,28,05,55,15.00
2020,07,28,05,56,14.90
2020,07,28,05,57,14.90
2020,07,28,05,58,14.90
2020,07,28,05,59,14.90
2020,07,28,06,00,14.90
2020,07,28,06,01,14.80
2020,07,28,06,02,14.80
2020,07,28,06,03,14.80
2020,07,28,06,04,14.70
2020,07,28,06,05,14.70
2020,07,28,06,06,14.70
2020,07,28,06,07,14.80
2020,07,28,06,08,14.80
2020,07,28,06,09,14.80
2020,07,28,06,10,14.80
2020,07,28,06,11,14.70
2020,07,28,06,12,14.70
2020,07,28,06,13,14.70
2020,07,28,06,14,14.70
2020,07,28,06,15,14.70
2020,07,28,06,16,14.70
2020,07,28,06,17,14.60
2020,07,28,06,18,14.60
2020,07,28,06,19,14.60
2020,07,28,06,20,14.60
2020,07,28,06,21,14.70
2020,07,28,06,22,14.70
2020,07,28,06,23,14.70
2020,07,28,06,24,14.70
2020,07,28,06,25,14.70
2020,07,28,06,26,14.60
2020,07,28,06,27,14.60
2020,07,28,06,28,14.60
2020,07,28,06,29,14.70
2020,07,28,06,30,14.70
2020,07,28,06,31,14.70
2020,07,28,06,32,14.80
2020,07,28,06,33,14.80
2020,07,28,06,34,14.80
2020,07,28,06,35,14.80
2020,07,28,06,36,14.80
2020,07,28,06,37,14.80
2020,07,28,06,38,14.80
2020,07,28,06,39,14.80
2020,07,28,06,40,14.80
2020,07,28,06,41,14.90
2020,07,28,06,42,14.90
2020,07,28,06,43,14.90
2020,07,28,06,44,14.90
2020,07,28,06,45,15.00
2020,07,28,06,46,15.00
2020,07,28,06,47,15.10
2020,07,28,06,48,15.10
2020,07,28,06,49,15.20
2020,07,28,06,50,15.20
2020,07,28,06,51,15.30
2020,07,28,06,52,15.30
2020,07,28,06,53,15.40
2020,07,28,06,54,15.40
2020,07,28,06,55,15.50
2020,07,28,06,56,15.50
2020,07,28,06,57,15.60
2020,07,28,06,58,15.70
2020,07,28,06,59,15.70
2020,07,28,07,00,15.80
2020,07,28,07,01,15.90
2020,07,28,07,02,16.00
2020,07,28,07,03,16.00
2020,07,28,07,04,16.10
2020,07,28,07,05,16.20
2020,07,28,07,06,16.30
2020,07,28,07,07,16.50
2020,07,28,07,08,16.60
2020,07,28,07,09,16.70
2020,07,28,07,10,16.80
2020,07,28,07,11,16.90
2020,07,28,07,12,17.10
2020,07,28,07,13,17.20
2020,07,28,07,14,17.40
2020,07,28,07,15,17.50
2020,07,28,07,16,17.60
2020,07,28,07,17,17.70
2020,07,28,07,18,17.80
2020,07,28,07,19,17.80
2020,07,28,07,20,17.90
2020,07,28,07,21,17.90
2020,07,28,07,22,17.90
2020,07,28,07,23,17.90
2020,07,28,07,24,17.90
2020,07,28,07,25,18.00
2020,07,28,07,26,18.00
2020,07,28,07,27,18.00
2020,07,28,07,28,18.00
2020,07,28,07,29,18.00
2020,07,28,07,30,18.00
2020,07,28,07,31,18.00
2020,07,28,07,32,18.00
2020,07,28,07,33,18.00
2020,07,28,07,34,18.00
2020,07,28,07,35,18.10
2020,07,28,07,36,18.10
2020,07,28,07,37,18.20
2020,07,28,07,38,18.20
2020,07,28,07,39,18.30
2020,07,28,07,40,18.30
2020,07,28,07,41,18.30
2020,07,28,07,42,18.30
2020,07,28,07,43,18.30
2020,07,28,07,44,18.30
2020,07,28,07,45,18.30
2020,07,28,07,46,18.30
2020,07,28,07,47,18.20
2020,07,28,07,48,18.30
2020,07,28,07,49,18.30
2020,07,28,07,50,18.30
2020,07,28,07,51,18.30
2020,07,28,07,52,18.40
2020,07,28,07,53,18.40
2020,07,28,07,54,18.50
2020,07,28,07,55,18.60
2020,07,28,07,56,18.60
2020,07,28,07,57,18.70
2020,07,28,07,58,18.80
2020,07,28,07,59,19.00
2020,07,28,08,00,19.10
2020,07,28,08,01,19.30
2020,07,28,08,02,19.40
2020,07,28,08,03,19.50
2020,07,28,08,04,19.60
2020,07,28,08,05,19.60
2020,07,28,08,06,19.70
2020,07,28,08,07,19.70
2020,07,28,08,08,19.80
2020,07,28,08,09,19.90
2020,07,28,08,10,20.00
2020,07,28,08,11,20.10
2020,07,28,08,12,20.10
2020,07,28,08,13,20.10
2020,07,28,08,14,20.00
2020,07,28,08,15,20.00
2020,07,28,08,16,20.00
2020,07,28,08,17,20.10
2020,07,28,08,18,20.10
2020,07,28,08,19,20.20
2020,07,28,08,20,20.30
2020,07,28,08,21,20.40
2020,07,28,08,22,20.50
2020,07,28,08,23,20.60
2020,07,28,08,24,20.60
2020,07,28,08,25,20.50
2020,07,28,08,26,20.50
2020,07,28,08,27,20.40
2020,07,28,08,28,20.30
2020,07,28,08,29,20.20
2020,07,28,08,30,20.10
2020,07,28,08,31,20.00
2020,07,28,08,32,19.90
2020,07,28,08,33,19.90
2020,07,28,08,34,19.90
2020,07,28,08,35,19.90
2020,07,28,08,36,19.90
2020,07,28,08,37,19.80
2020,07,28,08,38,19.80
2020,07,28,08,39,19.70
2020,07,28,08,40,19.70
2020,07,28,08,41,19.70
2020,07,28,08,42,19.70
2020,07,28,08,43,19.70
2020,07,28,08,44,19.70
2020,07,28,08,45,19.80
2020,07,28,08,46,19.90
2020,07,28,08,47,19.90
2020,07,28,08,48,20.00
2020,07,28,08,49,20.10
2020,07,28,08,50,20.20
2020,07,28,08,51,20.30
2020,07,28,08,52,20.40
2020,07,28,08,53,20.40
2020,07,28,08,54,20.40
2020,07,28,08,55,20.40
2020,07,28,08,56,20.50
2020,07,28,08,57,20.60
2020,07,28,08,58,20.60
2020,07,28,08,59,20.70
2020,07,28,09,00,20.80
2020,07,28,09,01,20.80
2020,07,28,09,02,20.90
2020,07,28,09,03,20.90
2020,07,28,09,04,20.90
2020,07,28,09,05,20.90
2020,07,28,09,06,20.90
2020,07,28,09,07,20.90
2020,07,28,09,08,21.00
2020,07,28,09,09,21.00
2020,07,28,09,10,21.00
2020,07,28,09,11,21.00
2020,07,28,09,12,21.00
2020,07,28,09,13,21.10
2020,07,28,09,14,21.10
2020,07,28,09,15,21.10
2020,07,28,09,16,21.00
2020,07,28,09,17,20.90
2020,07,28,09,18,20.90
2020,07,28,09,19,20.90
2020,07,28,09,20,20.90
2020,07,28,09,21,20.90
2020,07,28,09,22,20.90
2020,07,28,09,23,20.90
2020,07,28,09,24,20.90
2020,07,28,09,25,21.00
2020,07,28,09,26,21.00
2020,07,28,09,27,21.10
2020,07,28,09,28,21.20
2020,07,28,09,29,21.30
2020,07,28,09,30,21.40
2020,07,28,09,31,21.40
2020,07,28,09,32,21.30
2020,07,28,09,33,21.30
2020,07,28,09,34,21.30
2020,07,28,09,35,21.30
2020,07,28,09,36,21.40
2020,07,28,09,37,21.40
2020,07,28,09,38,21.40
2020,07,28,09,39,21.40
2020,07,28,09,40,21.40
2020,07,28,09,41,21.40
2020,07,28,09,42,21.40
2020,07,28,09,43,21.50
2020,07,28,09,44,21.60
2020,07,28,09,45,21.60
2020,07,28,09,46,21.70
2020,07,28,09,47,21.80
2020,07,28,09,48,21.80
2020,07,28,09,49,21.70
2020,07,28,09,50,21.60
2020,07,28,09,51,21.60
2020,07,28,09,52,21.70
2020,07,28,09,53,21.70
2020,07,28,09,54,21.70
2020,07,28,09,55,21.60
2020,07,28,09,56,21.40
2020,07,28,09,57,21.30
2020,07,28,09,58,21.30
2020,07,28,09,59,21.30
2020,07,28,10,00,21.30
2020,07,28,10,01,21.40
2020,07,28,10,02,21.30
2020,07,28,10,03,21.10
2020,07,28,10,04,20.90
2020,07,28,10,05,20.80
2020,07,28,10,06,20.70
2020,07,28,10,07,20.70
2020,07,28,10,08,20.70
2020,07,28,10,09,20.70
2020,07,28,10,10,20.70
2020,07,28,10,11,20.70
2020,07,28,10,12,20.70
2020,07,28,10,13,20.70
2020,07,28,10,14,20.80
2020,07,28,10,15,20.80
2020,07,28,10,16,20.90
2020,07,28,10,17,21.00
2020,07,28,10,18,21.10
2020,07,28,10,19,21.10
2020,07,28,10,20,21.10
2020,07,28,10,21,21.00
2020,07,28,10,22,20.90
2020,07,28,10,23,20.80
2020,07,28,10,24,20.80
2020,07,28,10,25,20.80
2020,07,28,10,26,20.80
2020,07,28,10,27,21.00
2020,07,28,10,28,21.10
2020,07,28,10,29,21.20
2020,07,28,10,30,21.20
2020,07,28,10,31,21.20
2020,07,28,10,32,21.30
2020,07,28,10,33,21.40
2020,07,28,10,34,21.40
2020,07,28,10,35,21.40
2020,07,28,10,36,21.40
2020,07,28,10,37,21.40
2020,07,28,10,38,21.40
2020,07,28,10,39,21.50
2020,07,28,10,40,21.40
2020,07,28,10,41,21.40
2020,07,28,10,42,21.40
2020,07,28,10,43,21.50
2020,07,28,10,44,21.60
2020,07,28,10,45,21.60
2020,07,28,10,46,21.60
2020,07,28,10,47,21.70
2020,07,28,10,48,21.70
2020,07,28,10,49,21.70
2020,07,28,10,50,21.60
2020,07,28,10,51,21.40
2020,07,28,10,52,21.20
2020,07,28,10,53,21.20
2020,07,28,10,54,21.20
2020,07,28,10,55,21.20
2020,07,28,10,56,21.20
2020,07,28,10,57,21.10
2020,07,28,10,58,21.10
2020,07,28,10,59,21.10
2020,07,28,11,00,21.00
2020,07,28,11,01,20.90
2020,07,28,11,02,20.80
2020,07,28,11,03,20.80
2020,07,28,11,04,20.90
2020,07,28,11,05,20.80
2020,07,28,11,06,20.80
2020,07,28,11,07,20.80
2020,07,28,11,08,20.80
2020,07,28,11,09,20.80
2020,07,28,11,10,20.80
2020,07,28,11,11,20.90
2020,07,28,11,12,21.00
2020,07,28,11,13,21.00
2020,07,28,11,14,21.10
2020,07,28,11,15,21.20
2020,07,28,11,16,21.30
2020,07,28,11,17,21.20
2020,07,28,11,18,21.20
2020,07,28,11,19,21.20
2020,07,28,11,20,21.30
2020,07,28,11,21,21.40
2020,07,28,11,22,21.40
2020,07,28,11,23,21.50
2020,07,28,11,24,21.60
2020,07,28,11,25,21.60
2020,07,28,11,26,21.70
2020,07,28,11,27,21.80
2020,07,28,11,28,21.80
2020,07,28,11,29,21.80
2020,07,28,11,30,21.70
2020,07,28,11,31,21.70
2020,07,28,11,32,21.70
2020,07,28,11,33,21.70
2020,07,28,11,34,21.80
2020,07,28,11,35,21.70
2020,07,28,11,36,21.60
2020,07,28,11,37,21.50
2020,07,28,11,38,21.50
2020,07,28,11,39,21.60
2020,07,28,11,40,21.70
2020,07,28,11,41,21.80
2020,07,28,11,42,21.90
2020,07,28,11,43,22.00
2020,07,28,11,44,22.20
2020,07,28,11,45,22.30
2020,07,28,11,46,22.20
2020,07,28,11,47,21.90
2020,07,28,11,48,21.70
2020,07,28,11,49,21.70
2020,07,28,11,50,21.70
2020,07,28,11,51,21.70
2020,07,28,11,52,21.80
2020,07,28,11,53,21.80
2020,07,28,11,54,21.80
2020,07,28,11,55,21.90
2020,07,28,11,56,21.90
2020,07,28,11,57,21.80
2020,07,28,11,58,21.70
2020,07,28,11,59,21.60
2020,07,28,12,00,21.60
2020,07,28,12,01,21.50
2020,07,28,12,02,21.40
2020,07,28,12,03,21.40
2020,07,28,12,04,21.40
2020,07,28,12,05,21.40
2020,07,28,12,06,21.50
2020,07,28,12,07,21.50
2020,07,28,12,08,21.60
2020,07,28,12,09,21.80
2020,07,28,12,10,21.90
2020,07,28,12,11,21.90
2020,07,28,12,12,22.10
2020,07,28,12,13,22.20
2020,07,28,12,14,22.10
2020,07,28,12,15,22.10
2020,07,28,12,16,22.10
2020,07,28,12,17,22.20
2020,07,28,12,18,22.20
2020,07,28,12,19,22.20
2020,07,28,12,20,22.10
2020,07,28,12,21,22.10
2020,07,28,12,22,22.20
2020,07,28,12,23,22.30
2020,07,28,12,24,22.40
2020,07,28,12,25,22.40
2020,07,28,12,26,22.40
2020,07,28,12,27,22.40
2020,07,28,12,28,22.30
2020,07,28,12,29,22.10
2020,07,28,12,30,22.10
2020,07,28,12,31,22.10
2020,07,28,12,32,22.00
2020,07,28,12,33,22.00
2020,07,28,12,34,22.10
2020,07,28,12,35,22.20
2020,07,28,12,36,22.30
2020,07,28,12,37,22.40
2020,07,28,12,38,22.60
2020,07,28,12,39,22.70
2020,07,28,12,40,22.90
2020,07,28,12,41,23.00
2020,07,28,12,42,23.00
2020,07,28,12,43,23.10
2020,07,28,12,44,23.30
2020,07,28,12,45,23.40
2020,07,28,12,46,23.40
2020,07,28,12,47,23.30
2020,07,28,12,48,23.20
2020,07,28,12,49,23.20
2020,07,28,12,50,23.20
2020,07,28,12,51,23.10
2020,07,28,12,52,23.10
2020,07,28,12,53,23.10
2020,07,28,12,54,23.00
2020,07,28,12,55,23.00
2020,07,28,12,56,23.20
2020,07,28,12,57,23.20
2020,07,28,12,58,23.10
2020,07,28,12,59,23.10
2020,07,28,13,00,23.10
2020,07,28,13,01,23.10
2020,07,28,13,02,23.20
2020,07,28,13,03,23.30
2020,07,28,13,04,23.40
2020,07,28,13,05,23.40
2020,07,28,13,06,23.30
2020,07,28,13,07,23.30
2020,07,28,13,08,23.40
2020,07,28,13,09,23.50
2020,07,28,13,10,23.50
2020,07,28,13,11,23.50
2020,07,28,13,12,23.40
2020,07,28,13,13,23.40
2020,07,28,13,14,23.30
2020,07,28,13,15,23.20
2020,07,28,13,16,23.20
2020,07,28,13,17,23.20
2020,07,28,13,18,23.40
2020,07,28,13,19,23.60
2020,07,28,13,20,23.60
2020,07,28,13,21,23.70
2020,07,28,13,22,23.80
2020,07,28,13,23,23.80
2020,07,28,13,24,23.80
2020,07,28,13,25,23.70
2020,07,28,13,26,23.80
2020,07,28,13,27,23.90
2020,07,28,13,28,24.10
2020,07,28,13,29,24.20
2020,07,28,13,30,24.20
2020,07,28,13,31,24.30
2020,07,28,13,32,24.40
2020,07,28,13,33,24.40
2020,07,28,13,34,24.20
2020,07,28,13,35,24.20
2020,07,28,13,36,24.10
2020,07,28,13,37,23.90
2020,07,28,13,38,23.80
2020,07,28,13,39,23.80
2020,07,28,13,40,23.80
2020,07,28,13,41,23.80
2020,07,28,13,42,23.90
2020,07,28,13,43,23.80
2020,07,28,13,44,23.80
2020,07,28,13,45,23.90
2020,07,28,13,46,24.00
2020,07,28,13,47,24.10
2020,07,28,13,48,24.10
2020,07,28,13,49,24.20
2020,07,28,13,50,24.30
2020,07,28,13,51,24.30
2020,07,28,13,52,24.30
2020,07,28,13,53,24.30
2020,07,28,13,54,24.20
2020,07,28,13,55,24.20
2020,07,28,13,56,24.10
2020,07,28,13,57,24.10
2020,07,28,13,58,24.20
2020,07,28,13,59,24.20
2020,07,28,14,00,24.30
2020,07,28,14,01,24.30
2020,07,28,14,02,24.40
2020,07,28,14,03,24.40
2020,07,28,14,04,24.40
2020,07,28,14,05,24.50
2020,07,28,14,06,24.40
2020,07,28,14,07,24.40
2020,07,28,14,08,24.50
2020,07,28,14,09,24.40
2020,07,28,14,10,24.50
2020,07,28,14,11,24.50
2020,07,28,14,12,24.60
2020,07,28,14,13,24.80
2020,07,28,14,14,24.80
2020,07,28,14,15,24.80
2020,07,28,14,16,24.80
2020,07,28,14,17,24.80
2020,07,28,14,18,24.70
2020,07,28,14,19,24.60
2020,07,28,14,20,24.60
2020,07,28,14,21,24.60
2020,07,28,14,22,24.70
2020,07,28,14,23,24.90
2020,07,28,14,24,25.10
2020,07,28,14,25,25.30
2020,07,28,14,26,25.40
2020,07,28,14,27,25.50
2020,07,28,14,28,25.60
2020,07,28,14,29,25.60
2020,07,28,14,30,25.70
2020,07,28,14,31,25.80
2020,07,28,14,32,25.70
2020,07,28,14,33,25.50
2020,07,28,14,34,25.20
2020,07,28,14,35,24.90
2020,07,28,14,36,24.80
2020,07,28,14,37,24.70
2020,07,28,14,38,24.50
2020,07,28,14,39,24.40
2020,07,28,14,40,24.30
2020,07,28,14,41,24.10
2020,07,28,14,42,23.90
2020,07,28,14,43,23.70
2020,07,28,14,44,23.60
2020,07,28,14,45,23.60
2020,07,28,14,46,23.50
2020,07,28,14,47,23.40
2020,07,28,14,48,23.40
2020,07,28,14,49,23.40
2020,07,28,14,50,23.30
2020,07,28,14,51,23.30
2020,07,28,14,52,23.20
2020,07,28,14,53,23.20
2020,07,28,14,54,23.10
2020,07,28,14,55,23.00
2020,07,28,14,56,23.00
2020,07,28,14,57,22.90
2020,07,28,14,58,22.80
2020,07,28,14,59,22.70
2020,07,28,15,00,22.70
2020,07,28,15,01,22.60
2020,07,28,15,02,22.60
2020,07,28,15,03,22.60
2020,07,28,15,04,22.60
2020,07,28,15,05,22.60
2020,07,28,15,06,22.60
2020,07,28,15,07,22.60
2020,07,28,15,08,22.60
2020,07,28,15,09,22.50
2020,07,28,15,10,22.50
2020,07,28,15,11,22.50
2020,07,28,15,12,22.40
2020,07,28,15,13,22.40
2020,07,28,15,14,22.40
2020,07,28,15,15,22.40
2020,07,28,15,16,22.40
2020,07,28,15,17,22.50
2020,07,28,15,18,22.50
2020,07,28,15,19,22.60
2020,07,28,15,20,22.60
2020,07,28,15,21,22.60
2020,07,28,15,22,22.60
2020,07,28,15,23,22.60
2020,07,28,15,24,22.60
2020,07,28,15,25,22.60
2020,07,28,15,26,22.60
2020,07,28,15,27,22.60
2020,07,28,15,28,22.60
2020,07,28,15,29,22.70
2020,07,28,15,30,22.70
2020,07,28,15,31,22.70
2020,07,28,15,32,22.70
2020,07,28,15,33,22.60
2020,07,28,15,34,22.60
2020,07,28,15,35,22.60
2020,07,28,15,36,22.60
2020,07,28,15,37,22.60
2020,07,28,15,38,22.70
2020,07,28,15,39,22.80
2020,07,28,15,40,22.90
2020,07,28,15,41,22.90
2020,07,28,15,42,22.90
2020,07,28,15,43,22.90
2020,07,28,15,44,23.00
2020,07,28,15,45,23.00
2020,07,28,15,46,23.10
2020,07,28,15,47,23.10
2020,07,28,15,48,23.10
2020,07,28,15,49,23.10
2020,07,28,15,50,23.10
2020,07,28,15,51,23.00
2020,07,28,15,52,22.90
2020,07,28,15,53,22.90
2020,07,28,15,54,22.90
2020,07,28,15,55,22.90
2020,07,28,15,56,22.90
2020,07,28,15,57,22.90
2020,07,28,15,58,23.00
2020,07,28,15,59,23.00
2020,07,28,16,00,23.10
2020,07,28,16,01,23.20
2020,07,28,16,02,23.20
2020,07,28,16,03,23.10
2020,07,28,16,04,23.10
2020,07,28,16,05,23.10
2020,07,28,16,06,23.10
2020,07,28,16,07,23.10
2020,07,28,16,08,23.20
2020,07,28,16,09,23.30
2020,07,28,16,10,23.30
2020,07,28,16,11,23.30
2020,07,28,16,12,23.40
2020,07,28,16,13,23.40
2020,07,28,16,14,23.40
2020,07,28,16,15,23.40
2020,07,28,16,16,23.40
2020,07,28,16,17,23.40
2020,07,28,16,18,23.40
2020,07,28,16,19,23.50
2020,07,28,16,20,23.50
2020,07,28,16,21,23.60
2020,07,28,16,22,23.70
2020,07,28,16,23,23.80
2020,07,28,16,24,23.90
2020,07,28,16,25,24.00
2020,07,28,16,26,24.10
2020,07,28,16,27,24.20
2020,07,28,16,28,24.30
2020,07,28,16,29,24.40
2020,07,28,16,30,24.50
2020,07,28,16,31,24.50
2020,07,28,16,32,24.50
2020,07,28,16,33,24.50
2020,07,28,16,34,24.50
2020,07,28,16,35,24.40
2020,07,28,16,36,24.40
2020,07,28,16,37,24.50
2020,07,28,16,38,24.60
2020,07,28,16,39,24.70
2020,07,28,16,40,24.60
2020,07,28,16,41,24.60
2020,07,28,16,42,24.60
2020,07,28,16,43,24.60
2020,07,28,16,44,24.60
2020,07,28,16,45,24.70
2020,07,28,16,46,24.80
2020,07,28,16,47,24.70
2020,07,28,16,48,24.80
2020,07,28,16,49,24.80
2020,07,28,16,50,24.80
2020,07,28,16,51,24.80
2020,07,28,16,52,24.90
2020,07,28,16,53,25.00
2020,07,28,16,54,25.10
2020,07,28,16,55,25.10
2020,07,28,16,56,25.00
2020,07,28,16,57,25.00
2020,07,28,16,58,25.10
2020,07,28,16,59,25.20
2020,07,28,17,00,25.20
2020,07,28,17,01,25.20
2020,07,28,17,02,25.20
2020,07,28,17,03,25.20
2020,07,28,17,04,25.20
2020,07,28,17,05,25.30
2020,07,28,17,06,25.30
2020,07,28,17,07,25.40
2020,07,28,17,08,25.40
2020,07,28,17,09,25.40
2020,07,28,17,10,25.40
2020,07,28,17,11,25.40
2020,07,28,17,12,25.40
2020,07,28,17,13,25.40
2020,07,28,17,14,25.40
2020,07,28,17,15,25.40
2020,07,28,17,16,25.40
2020,07,28,17,17,25.40
2020,07,28,17,18,25.30
2020,07,28,17,19,25.20